This is the latest recevied weather packets stored in our database for station/object SQ3MKP-13. If no packets are shown the sender has not sent any weather packets the latest 10 day(s).
| Time | Temp. | Humidity | Pressure | Rain* | Wind** | Luminosity | Snow |
|---|---|---|---|---|---|---|---|
| 1787974240 | 17.78° C | 91% | 1001.7 hPa | 0.25 mm | - | - | - |
| 1787973939 | 17.78° C | 91% | 1001.8 hPa | 0.51 mm | - | - | - |
| 1787973638 | 17.78° C | 92% | 1001.7 hPa | 0.51 mm | - | - | - |
| 1787973336 | 17.78° C | 92% | 1001.7 hPa | 0.51 mm | - | - | - |
| 1787973038 | 18.33° C | 91% | 1001.6 hPa | 0.51 mm | - | - | - |
| 1787972734 | 18.33° C | 90% | 1001.6 hPa | 0.25 mm | - | - | - |
| 1787972433 | 18.33° C | 90% | 1001.5 hPa | 0.51 mm | - | - | - |
| 1787972132 | 18.33° C | 90% | 1001.4 hPa | 0.51 mm | - | - | - |
| 1787971831 | 18.33° C | 92% | 1001.5 hPa | 0.76 mm | - | - | - |
| 1787971531 | 18.33° C | 92% | 1001.6 hPa | 0.76 mm | - | - | - |
| 1787971229 | 18.33° C | 91% | 1001.5 hPa | 0.76 mm | - | - | - |
| 1787970928 | 18.33° C | 91% | 1001.3 hPa | 1.02 mm | - | - | - |
| 1787970627 | 18.33° C | 90% | 1001.2 hPa | 1.27 mm | - | - | - |
| 1787970327 | 18.33° C | 90% | 1001.2 hPa | 1.27 mm | - | - | - |
| 1787970025 | 18.33° C | 92% | 1001.3 hPa | 1.27 mm | - | - | - |
| 1787969724 | 18.33° C | 92% | 1001.1 hPa | 1.02 mm | - | - | - |
| 1787969424 | 18.89° C | 93% | 1001.1 hPa | 1.27 mm | - | - | - |
| 1787969122 | 18.89° C | 93% | 1001.1 hPa | 0.76 mm | - | - | - |
| 1787968822 | 18.89° C | 93% | 1001.1 hPa | 0.76 mm | - | - | - |
| 1787968520 | 18.89° C | 92% | 1001 hPa | 0.25 mm | - | - | - |
| 1787968219 | 18.89° C | 92% | 1000.9 hPa | 0.51 mm | - | - | - |
| 1787967918 | 18.89° C | 92% | 1000.6 hPa | 0.51 mm | - | - | - |
| 1787967618 | 18.89° C | 91% | 1000.7 hPa | 0.51 mm | - | - | - |
| 1787967316 | 18.89° C | 91% | 1000.8 hPa | 0.25 mm | - | - | - |
| 1787967015 | 18.89° C | 90% | 1000.7 hPa | 0.25 mm | - | - | - |
* Rain latest hour (hover to see other rain measurements)
** Current wind speed in m/s (hover to see current wind gust speed)